カタログに戻る

BEIBUWAN-1

運用中科学SSO
NORAD 66055·PAYLOAD·🇨🇳 China
この衛星名は、まだ公式ソースで確認されていません。

打ち上げ Oct 19, 2025 から Jiuquan Satellite Launch Center

Loading…

次のパス (今後24時間)

TLE

最新Source: Space-Track

元期: Sep 13, 2026, 18:17 UTC

1 66055U 25234C   26256.76240026  .00003464  00000-0  14209-3 0  9992
2 66055  97.4175 324.3295 0013872 200.6185 159.4495 15.24833351 50184

AllMySatでBEIBUWAN-1をリアルタイム追跡

Download on the App Store